Terre Haute, IN

7:51 PM EST on December 07, 2019 (GMT -0500)
Terre Haute International-Hulman

Weather History for KHUF - October, 2019

Change the Weather History Date:

Saturday, October 12, 2019

  Actual Average Record
Temperature  
Mean Temperature 45 °F 55 °F  
Max Temperature 56 °F 67 °F 88 °F (1962)
Min Temperature 34 °F 43 °F 26 °F (1988)
Degree Days  
Heating Degree Days 20 10  
Month to date heating degree days 63 102  
Since 1 July heating degree days 65 180  
Cooling Degree Days 0 1  
Month to date cooling degree days 34 12  
Year to date cooling degree days 1298 990  
Moisture  
Dew Point 33 °F    
Average Humidity 67    
Maximum Humidity 96    
Minimum Humidity 38    
Precipitation  
Precipitation 0.00 in 0.12 in 1.78 in (1954)
Month to date precipitation 1.92 1.36  
Year to date precipitation 39.85 36.06  
Sea Level Pressure  
Sea Level Pressure 30.13 in    
Wind  
Wind Speed 8 mph (SW)    
Max Wind Speed 18 mph    
Max Gust Speed 25 mph    
Visibility 10 miles    
Events      
T = Trace of Precipitation, MM = Missing Value Source: NWS Daily Summary

Daily Weather History Graph

Daily Weather History Graph

Search for Another Location

Airport or City:

Astronomy

Oct. 12, 2019 Rise Set
Actual Time 7:55 AM EDT 7:14 PM EDT
Civil Twilight 7:28 AM EDT 7:41 PM EDT
Nautical Twilight 6:57 AM EDT 8:12 PM EDT
Astronomical Twilight 6:26 AM EDT 8:44 PM EDT
Moon 7:10 PM EDT (10/12) 6:33 AM EDT (10/12)
Length of Visible Light 12h 12m
Length of Day
11h 19m
Waxing Gibbous, 99% of the Moon is Illuminated
Oct 12
Waxing Gibbous
Oct 13
Full
Oct 21
Last Quarter
Oct 27
New
Nov 4
First Quarter

Hourly Weather History & Observations

Time (EDT) Temp. Windchill Dew Point Humidity Pressure Visibility Wind Dir Wind Speed Gust Speed Precip Events Conditions
12:53 AM 39.0 °F 35.7 °F 35.1 °F 86% 30.15 in 10.0 mi WSW 4.6 mph - N/A   Clear
1:53 AM 37.9 °F 35.5 °F 35.1 °F 89% 30.15 in 10.0 mi SW 3.5 mph - N/A   Clear
2:53 AM 37.9 °F 33.5 °F 34.0 °F 86% 30.17 in 10.0 mi West 5.8 mph - N/A   Clear
3:53 AM 37.0 °F 34.5 °F 34.0 °F 89% 30.16 in 10.0 mi SSW 3.5 mph - N/A   Clear
4:53 AM 36.0 °F 32.1 °F 33.1 °F 89% 30.15 in 10.0 mi West 4.6 mph - N/A   Clear
5:53 AM 36.0 °F 32.1 °F 33.1 °F 89% 30.17 in 10.0 mi SW 4.6 mph - N/A   Clear
6:53 AM 34.0 °F 31.0 °F 32.0 °F 92% 30.18 in 10.0 mi SSW 3.5 mph - N/A   Clear
7:53 AM 35.1 °F 31.0 °F 33.1 °F 92% 30.19 in 10.0 mi SW 4.6 mph - N/A   Clear
8:53 AM 36.0 °F 32.1 °F 34.0 °F 93% 30.20 in 10.0 mi SW 4.6 mph - N/A   Clear
9:53 AM 41.0 °F 35.8 °F 34.0 °F 76% 30.19 in 10.0 mi SW 8.1 mph - N/A   Clear
10:53 AM 45.0 °F 38.9 °F 30.9 °F 58% 30.19 in 10.0 mi SW 12.7 mph - N/A   Clear
11:53 AM 46.9 °F - 32.0 °F 56% 30.20 in 10.0 mi SW 16.1 mph 23.0 mph N/A   Clear
12:53 PM 50.0 °F - 30.9 °F 48% 30.18 in 10.0 mi SW 13.8 mph 19.6 mph N/A   Clear
1:53 PM 52.0 °F - 32.0 °F 47% 30.16 in 10.0 mi SW 11.5 mph 23.0 mph N/A   Clear
2:53 PM 53.1 °F - 30.9 °F 43% 30.12 in 10.0 mi SW 13.8 mph 21.9 mph N/A   Clear
3:53 PM 54.0 °F - 30.9 °F 41% 30.09 in 10.0 mi SSW 9.2 mph 19.6 mph N/A   Clear
4:53 PM 55.0 °F - 30.0 °F 38% 30.06 in 10.0 mi SW 12.7 mph 20.7 mph N/A   Clear
5:53 PM 55.0 °F - 32.0 °F 42% 30.05 in 10.0 mi SSW 10.4 mph - N/A   Clear
6:53 PM 53.1 °F - 32.0 °F 45% 30.06 in 10.0 mi SSW 10.4 mph - N/A   Clear
7:53 PM 48.9 °F - 34.0 °F 56% 30.05 in 10.0 mi South 6.9 mph - N/A   Clear
8:53 PM 46.9 °F - 35.1 °F 63% 30.05 in 10.0 mi South 5.8 mph - N/A   Clear
9:53 PM 46.0 °F 41.4 °F 35.1 °F 66% 30.04 in 10.0 mi South 9.2 mph - N/A   Clear
10:53 PM 45.0 °F 40.1 °F 35.1 °F 68% 30.04 in 10.0 mi South 9.2 mph - N/A   Clear
11:53 PM 43.0 °F 38.2 °F 34.0 °F 71% 30.03 in 10.0 mi South 8.1 mph - N/A   Clear